Погода в Летбридже

Канада     49°41′49″N   112°48′42″W
темп.,
°C
ветер,
м/с
пор.,
м/с
влажн.,
%
обл.,
%
осадки,
мм/ч
давл.,
гПа
погр.,
м
25 февраля, чт
чт2523:00−2зюз918557 0.0 1023519
02:00−2зюз112247100 0.0 1020794
05:00−2зюз82248100 0.4 10131088
08:000зюз132551100 1.9 10081034
11:00+1зюз112250100 1.9 10051388
14:00+3зюз152045100 0.0 10041352
17:00+2з11184796 0.0 10021239
20:00+1зюз10195340 0.0 1003693
26 февраля, пт
пт2623:000зюз11195451 0.0 1002656
02:00−1зюз7175989 0.0 1001717
05:00−2з5106275 0.0 1000212
08:00−3зсз3566100 0.0 1002108
11:00−5с8117499 0.0 1005649
14:00−7с5772100 0.1 1008613
17:00−8ссв4576100 0.1 1011608
20:00−10ссв3487100 0.3 1014358
27 февраля, сб
сб2723:00−11св4584100 0.9 1016389
02:00−12св3482100 0.0 1018381
05:00−13с3486100 0.1 1021378
08:00−13сз2386100 0.4 1024334
11:00−10зсз4570100 0.4 1025872
14:00−7зсз3453100 0.0 1024850
17:00−6юз346091 0.0 1022614
20:00−10ююз48720 0.0 1022157
28 февраля, вс
вс2823:00−8юз6147215 0.0 1020282
02:00−5юз7186272 0.0 1017488
05:00−4зюз11205473 0.0 1017556
08:00−4з10175587 0.0 1016421
11:00+1зюз10164878 0.0 1016669
14:00+3з9134746 0.0 1015688
17:00+2зюз9155023 0.0 1016549
20:000зюз1019565 0.0 1018470
1 марта, пн
пн123:000зюз1020574 0.0 1018495
02:00+1зюз1323530 0.0 1017506
05:00+1зюз920540 0.0 1016545
08:00+2зюз12215074 0.0 1016480
11:00+3зюз10175087 0.0 1013574
14:00+7зюз81446100 0.0 1011952
17:00+5юз81655100 0.0 1009710
20:00+3зюз102259100 0.0 1009740